Regional Weather Roundup
Issued by NWS Columbia, SC

Home | Current Version | Previous Version | Text Only | Print | Product List | Glossary On
Versions: 1 2 3 4 5 6 7 8 9 10 11 12 13 14 15 16 17 18 19 20 21 22 23 24 25 26 27
000
ASUS42 KCAE 240310
RWRCAE
REGIONAL WEATHER ROUNDUP
NATIONAL WEATHER SERVICE COLUMBIA SC
1000 PM EST TUE JAN 23 2018

NOTE: "FAIR" INDICATES FEW OR NO CLOUDS BELOW 12,000 FEET WITH NO
SIGNIFICANT WEATHER AND/OR OBSTRUCTIONS TO VISIBILITY.

NOT ALL STATIONS ARE QUALITY CONTROLLED BY THE NATIONAL
WEATHER SERVICE. USE DATA WITH CAUTION...ESPECIALLY
DEWPOINT OBSERVATIONS.

SCZ001>056-GAZ040-063>065-077-240400-
...UPSTATE SOUTH CAROLINA...

CITY           SKY/WX    TMP DP  RH WIND       PRES   REMARKS
ANDERSON       FAIR      46  31  55 W13       30.05R
LIBERTY        FAIR      44  31  60 NW8       30.03R
SPARTANBURG    FAIR      45  28  53 NW7       30.02R
CLEMSON        FAIR      46  31  55 W12       30.05R
GREENVILLE     FAIR      50  27  40 NW9       30.03R
GREENWOOD      FAIR      46  31  55 VRB5      30.07R
GREER          FAIR      45  29  53 NW3       30.03R
ROCK HILL      FAIR      47  30  51 N6        30.01R
CHESTER        FAIR      46  30  53 W7        30.01R
LAURENS        FAIR      46  32  57 W6        30.03R


...CENTRAL SOUTH CAROLINA...

CITY           SKY/WX    TMP DP  RH WIND       PRES   REMARKS
COLUMBIA APT   FAIR      52  32  46 W12G21    30.03R
COLUMBIA OWENS FAIR      54  29  38 W9        30.04R
MCENTIRE ANGB  CLEAR     51  31  46 W9        30.03R
ORANGEBURG     FAIR      53  31  42 W10       30.04R
SUMTER SHAW    FAIR      52  30  43 W8        29.99R
NEWBERRY       FAIR      48  32  53 W9        30.07R
AIKEN          FAIR      46  32  57 W8        30.08R
BARNWELL         N/A     54  34  47 W8        30.06R
MANNING        FAIR     N/A N/A N/A MISG      30.02R
CAMDEN         FAIR      52  30  43 W12       30.02R
LANCASTER      FAIR      46  30  53 W3        30.01R
WINNSBORO      FAIR      48  32  53 W7        30.02R


...EASTERN AND COASTAL SOUTH CAROLINA...

CITY           SKY/WX    TMP DP  RH WIND       PRES   REMARKS
MYRTLE BEACH   FAIR      57  33  40 W13       30.00R
N MYRTLE BCH   FAIR      58  32  37 W8        29.97R
CONWAY         FAIR      55  32  41 W8        29.99R
MARION         FAIR      54  32  43 W8        29.99R
HARTSVILLE     FAIR      48  32  53 W7        29.99R
FLORENCE       FAIR      55  31  39 W13       29.99R
DARLINGTON     FAIR      52  33  48 W8        30.00R
CHARLESTON APT FAIR      56  32  40 W6        30.03R
MOUNT PLEASANT FAIR      57  32  38 W7        30.03R
WALTERBORO     FAIR      52  32  46 W6        30.06R
BEAUFORT       FAIR      57  33  40 W9        30.06


...EASTERN GEORGIA...

CITY           SKY/WX    TMP DP  RH WIND       PRES   REMARKS
AUGUSTA BUSH F FAIR      51  32  48 NW9       30.07R
AUGUSTA DANIEL FAIR      53  31  42 W10       30.07R
THOMSON        FAIR      47  31  55 N6        30.13R
WASHINGTON     FAIR      46  32  57 W8        30.08R
CLAXTON        FAIR      46  38  74 SW5       30.09R
SYLVANIA       FAIR      49  36  61 NW7       30.08R
STATESBORO     FAIR      44  33  66 W3        30.08R
SAVANNAH       FAIR      56  31  38 W9        30.07R


...SOUTHERN NORTH CAROLINA...

CITY           SKY/WX    TMP DP  RH WIND       PRES   REMARKS
CHARLOTTE      FAIR      47  28  47 NW7       30.01R
MONROE         FAIR      48  32  53 NW5       29.99R
WADESBORO      FAIR      50  31  46 W3        29.99R
ROCKINGHAM     FAIR      50  32  49 W6        29.98R
RUTHERFORDTON  FAIR      45  26  47 W5        30.02S
ASHEVILLE      FAIR      40  28  62 NW16      30.02R WCI  31

$$




USA.gov is the U.S. government's official web portal to all federal, state and local government web resources and services.